Richmond, VA

4:43 PM EDT on March 27, 2017 (GMT -0400)
Richmond International

Weather History for KRIC - November, 2012

Change the Weather History Date:

Saturday, November 3, 2012

  Actual Average Record
Temperature  
Mean Temperature 44 °F 54 °F  
Max Temperature 56 °F 66 °F 83 °F (1974)
Min Temperature 31 °F 43 °F 23 °F (1930)
Degree Days  
Heating Degree Days 21 11  
Month to date heating degree days 52 32  
Since 1 July heating degree days 254 265  
Cooling Degree Days 0 0  
Month to date cooling degree days 0 0  
Year to date cooling degree days 1744 1543  
Moisture  
Dew Point 31 °F    
Average Humidity 62    
Maximum Humidity 85    
Minimum Humidity 38    
Precipitation  
Precipitation 0.00 in 0.11 in 3.33 in (1947)
Month to date precipitation T 0.33  
Year to date precipitation 33.42 37.43  
Snow  
Snow 0.00 in 0.00 in 0.00 in (2002)
Month to date snowfall 0.0 0.0  
Since 1 July snowfall 0.0 0.0  
Snow Depth 0.00 in    
Sea Level Pressure  
Sea Level Pressure 30.05 in    
Wind  
Wind Speed 6 mph (NNW)    
Max Wind Speed 18 mph    
Max Gust Speed 25 mph    
Visibility 10 miles    
Events      
T = Trace of Precipitation, MM = Missing Value Source: NWS Daily Summary

Daily Weather History Graph

Daily Weather History Graph

Search for Another Location

Airport or City:

Trip Planner

Search our weather history database for the weather conditions in past years. The results will help you decide how hot, cold, wet, or windy it might be!

Date:

Astronomy

Nov. 03, 2012 Rise Set
Actual Time 7:36 AM EDT 6:08 PM EDT
Civil Twilight 7:09 AM EDT 6:35 PM EDT
Nautical Twilight 6:38 AM EDT 7:06 PM EDT
Astronomical Twilight 6:07 AM EDT 7:37 PM EDT
Moon 9:49 PM EDT (11/3) 11:37 AM EDT (11/3)
Length of Visible Light 11h 26m
Length of Day
10h 31m
Waning Gibbous, 80% of the Moon is Illuminated
Nov 3
Waning Gibbous
Nov 6
Last Quarter
Nov 13
New
Nov 20
First Quarter
Nov 28
Full

Hourly Weather History & Observations

Time (EDT) Temp. Windchill Dew Point Humidity Pressure Visibility Wind Dir Wind Speed Gust Speed Precip Events Conditions
12:54 AM 36.0 °F - 30.0 °F 79% 29.98 in 10.0 mi Calm Calm - N/A   Clear
1:54 AM 37.0 °F - 30.0 °F 76% 29.98 in 10.0 mi Calm Calm - N/A   Clear
2:54 AM 37.9 °F - 30.9 °F 76% 29.98 in 10.0 mi Calm Calm - N/A   Clear
3:54 AM 36.0 °F 33.3 °F 30.9 °F 82% 29.99 in 10.0 mi WNW 3.5 mph - N/A   Clear
4:54 AM 35.1 °F - 30.0 °F 82% 29.99 in 10.0 mi Calm Calm - N/A   Clear
5:54 AM 34.0 °F 31.0 °F 28.9 °F 82% 30.02 in 10.0 mi SSW 3.5 mph - N/A   Clear
6:54 AM 36.0 °F 32.1 °F 30.0 °F 79% 30.04 in 10.0 mi WNW 4.6 mph - N/A   Mostly Cloudy
7:54 AM 37.9 °F 35.5 °F 33.1 °F 83% 30.06 in 10.0 mi NNW 3.5 mph - N/A   Mostly Cloudy
8:54 AM 41.0 °F 39.0 °F 34.0 °F 76% 30.08 in 10.0 mi North 3.5 mph - N/A   Mostly Cloudy
9:54 AM 45.0 °F 41.2 °F 34.0 °F 65% 30.08 in 10.0 mi NW 6.9 mph - N/A   Mostly Cloudy
10:54 AM 46.9 °F - 30.0 °F 52% 30.08 in 10.0 mi NW 10.4 mph - N/A   Mostly Cloudy
11:54 AM 48.9 °F - 30.0 °F 48% 30.08 in 10.0 mi NNW 12.7 mph - N/A   Mostly Cloudy
12:54 PM 50.0 °F - 30.0 °F 46% 30.07 in 10.0 mi NNW 11.5 mph 20.7 mph N/A   Mostly Cloudy
1:54 PM 53.1 °F - 30.9 °F 43% 30.04 in 10.0 mi NNW 11.5 mph 17.3 mph N/A   Scattered Clouds
2:54 PM 55.0 °F - 30.9 °F 40% 30.04 in 10.0 mi WNW 9.2 mph - N/A   Scattered Clouds
3:54 PM 55.0 °F - 30.0 °F 38% 30.04 in 10.0 mi NW 13.8 mph - N/A   Scattered Clouds
4:54 PM 54.0 °F - 30.0 °F 40% 30.04 in 10.0 mi NNW 11.5 mph - N/A   Partly Cloudy
5:54 PM 50.0 °F - 30.9 °F 48% 30.04 in 10.0 mi NNW 8.1 mph - N/A   Partly Cloudy
6:54 PM 46.9 °F - 30.9 °F 54% 30.07 in 10.0 mi NNW 5.8 mph - N/A   Partly Cloudy
7:54 PM 45.0 °F - 33.1 °F 63% 30.08 in 10.0 mi Calm Calm - N/A   Clear
8:54 PM 42.1 °F 37.7 °F 32.0 °F 67% 30.10 in 10.0 mi NNE 6.9 mph - N/A   Clear
9:54 PM 43.0 °F - 35.1 °F 74% 30.11 in 10.0 mi Calm Calm - N/A   Mostly Cloudy
10:54 PM 45.0 °F 41.8 °F 33.1 °F 63% 30.12 in 10.0 mi North 5.8 mph - N/A   Overcast
11:54 PM 45.0 °F 41.2 °F 32.0 °F 60% 30.12 in 10.0 mi NNW 6.9 mph - N/A   Overcast